FW4586 Weather Reports


Display with metric or nautical units.
time (UTC)temp
F
wind
direction
speed
MPH
gust
MPH
rain 1hr
in
rain 24hr
in
rain mn
in
humidity
%
barometer
mb
20260507230104 56 264 4.0 9.0 0.00 0.56 0.56 84 1001.3
20260507224551 56 231 5.0 15.0 0.00 0.56 0.56 83 1001.0
20260507223045 56 138 9.0 16.0 0.00 0.56 0.56 85 1000.9
20260507221546 56 111 7.0 15.0 0.00 0.56 0.56 84 1001.0
20260507220052 56 120 12.0 19.0 0.00 0.56 0.56 85 1000.7
20260507214544 55 123 13.0 24.0 0.00 0.56 0.56 85 1000.7
20260507213044 56 145 14.0 24.0 0.00 0.56 0.56 84 1000.6
20260507211544 56 141 14.0 25.0 0.00 0.56 0.56 85 1000.7
20260507210053 56 122 16.0 23.0 0.00 0.56 0.56 83 1000.7
20260507204541 56 110 13.0 23.0 0.02 0.56 0.56 85 1000.6
20260507203108 55 144 13.0 29.0 0.07 0.56 0.56 87 1000.7
20260507201540 55 117 18.0 36.0 0.13 0.56 0.56 87 1000.2
20260507200041 55 118 22.0 36.0 0.15 0.56 0.56 86 999.7
20260507194536 55 139 18.0 30.0 0.16 0.55 0.55 88 1000.9
20260507193035 55 161 13.0 19.0 0.14 0.49 0.49 88 1001.7
20260507191536 55 150 10.0 19.0 0.14 0.44 0.44 88 1002.8
20260507190030 55 152 10.0 27.0 0.18 0.42 0.42 88 1002.6
20260507184526 54 124 14.0 25.0 0.25 0.39 0.39 89 1003.1
20260507183024 54 140 13.0 23.0 0.32 0.35 0.35 90 1003.2
20260507181521 55 198 15.0 35.0 0.28 0.30 0.30 89 1003.5
20260507180022 55 204 17.0 30.0 0.24 0.24 0.24 90 1003.7
20260507174522 55 250 12.0 28.0 0.13 0.13 0.13 90 1004.1
20260507173018 56 209 20.0 34.0 0.03 0.03 0.03 87 1003.3
20260507171506 57 225 15.0 28.0 0.01 0.01 0.01 86 1002.4
20260507170006 59 218 21.0 36.0 0.00 0.00 0.00 82 1002.7
20260507164504 59 187 17.0 44.0 0.00 0.00 0.00 82 1002.6
20260507163002 60 226 23.0 46.0 0.00 0.00 0.00 77 1002.6
20260507161501 60 208 25.0 50.0 0.00 0.00 0.00 78 1003.2
20260507160104 60 219 21.0 45.0 0.00 0.00 0.00 77 1003.6
20260507154558 60 214 23.0 50.0 0.00 0.00 0.00 77 1003.9
20260507153059 60 206 25.0 43.0 0.00 0.00 0.00 75 1004.2
20260507151558 61 220 25.0 46.0 0.00 0.00 0.00 73 1004.6
20260507150054 60 217 23.0 52.0 0.00 0.00 0.00 76 1004.8
20260507144607 61 187 25.0 45.0 0.00 0.00 0.00 75 1004.9
20260507143100 61 189 31.0 45.0 0.00 0.00 0.00 76 1005.0
20260507141558 60 186 27.0 38.0 0.00 0.00 0.00 78 1005.7
20260507140050 59 198 19.0 44.0 0.00 0.00 0.00 80 1005.7
20260507134552 59 193 24.0 45.0 0.00 0.00 0.00 79 1005.8
20260507133125 59 221 18.0 40.0 0.00 0.00 0.00 79 1005.5
20260507131548 59 247 27.0 55.0 0.00 0.00 0.00 80 1005.8
20260507130058 59 194 31.0 48.0 0.00 0.00 0.00 81 1006.3
20260507124548 60 220 23.0 40.0 0.00 0.00 0.00 80 1006.0
20260507123047 60 214 25.0 45.0 0.00 0.00 0.00 79 1006.5
20260507121542 60 231 20.0 44.0 0.00 0.00 0.00 80 1006.2
20260507120039 59 198 25.0 49.0 0.00 0.00 0.00 82 1006.6
20260507114547 59 133 23.0 41.0 0.00 0.00 0.00 82 1007.0
20260507113038 58 197 25.0 39.0 0.00 0.00 0.00 83 1007.1
20260507111536 59 171 24.0 46.0 0.00 0.00 0.00 81 1007.9
20260507110041 59 138 27.0 45.0 0.00 0.00 0.00 80 1007.5
20260507104534 59 135 16.0 34.0 0.00 0.00 0.00 80 1007.7
20260507103042 59 150 22.0 39.0 0.00 0.00 0.00 81 1007.6
20260507101537 59 178 30.0 43.0 0.00 0.00 0.00 79 1007.7
20260507100036 59 136 30.0 50.0 0.00 0.00 0.00 80 1008.3
20260507094535 59 157 32.0 48.0 0.00 0.00 0.00 80 1007.7
20260507093029 58 196 17.0 42.0 0.00 0.00 0.00 81 1008.9
20260507091532 58 138 28.0 41.0 0.00 0.00 0.00 83 1008.9
20260507090025 58 148 24.0 44.0 0.00 0.00 0.00 83 1009.1
20260507084524 58 122 27.0 36.0 0.00 0.00 0.00 82 1008.9
20260507083023 59 209 18.0 35.0 0.00 0.00 0.00 81 1010.0
20260507081523 59 184 12.0 38.0 0.00 0.00 0.00 82 1009.0
20260507080019 59 145 25.0 43.0 0.00 0.00 0.00 81 1009.3
20260507074516 59 133 19.0 30.0 0.00 0.00 0.00 81 1010.1
20260507073015 59 143 21.0 32.0 0.00 0.00 0.00 81 1010.3
20260507071514 59 202 13.0 28.0 0.00 0.00 0.00 80 1011.1
20260507070018 59 154 17.0 31.0 0.00 0.00 0.00 78 1011.0
20260507064513 59 141 18.0 30.0 0.00 0.00 0.00 78 1011.2
20260507063007 59 183 16.0 37.0 0.00 0.00 0.00 77 1010.9
20260507061505 59 198 23.0 37.0 0.00 0.00 0.00 76 1011.3
20260507060002 59 164 17.0 32.0 0.00 0.00 0.00 75 1011.8
20260507054600 59 159 19.0 28.0 0.00 0.00 0.00 74 1011.5
20260507053124 59 132 15.0 26.0 0.00 0.00 0.00 68 1012.3
20260507051556 59 200 12.0 30.0 0.00 0.00 0.00 65 1012.7
20260507050054 58 145 18.0 29.0 0.00 0.00 0.00 68 1013.0
20260507044600 58 155 10.0 20.0 0.00 0.00 0.00 72 1013.4
20260507043050 58 176 12.0 21.0 0.00 0.00 0.00 73 1013.9
20260507041549 59 60 18.0 33.0 0.00 0.00 0.00 71 1014.2
20260507040143 59 158 17.0 31.0 0.00 0.00 0.00 69 1014.4
20260507034544 59 172 15.0 29.0 0.00 0.00 0.00 71 1014.5
20260507033049 59 129 18.0 35.0 0.00 0.00 0.00 72 1015.0
20260507031551 59 215 14.0 31.0 0.00 0.00 0.00 72 1015.3
20260507030033 60 174 18.0 30.0 0.00 0.00 0.00 71 1015.4
20260507024531 60 212 19.0 32.0 0.00 0.00 0.00 70 1015.6
20260507023030 60 220 20.0 33.0 0.00 0.00 0.00 69 1015.7
20260507021530 60 176 17.0 31.0 0.00 0.00 0.00 69 1015.8
20260507020028 61 207 20.0 38.0 0.00 0.00 0.00 68 1015.8
20260507014540 61 240 20.0 33.0 0.00 0.00 0.00 69 1015.9
20260507013035 61 190 17.0 42.0 0.00 0.00 0.00 69 1015.9
20260507011532 61 216 19.0 37.0 0.00 0.00 0.00 69 1016.0
20260507010034 61 202 19.0 34.0 0.00 0.00 0.00 69 1016.3
20260507004525 61 189 20.0 35.0 0.00 0.00 0.00 69 1016.4
20260507003024 61 214 19.0 33.0 0.00 0.00 0.00 69 1016.3
20260507001527 61 252 21.0 36.0 0.00 0.00 0.00 68 1016.5
20260507000023 61 201 18.0 33.0 0.00 0.00 0.00 67 1016.3
20260506234520 61 150 14.0 24.0 0.00 0.00 0.00 66 1016.1
20260506233019 61 150 17.0 27.0 0.00 0.00 0.00 65 1016.0